Timeline UpdatesTrip UpdatesNews PostsPvt PostsTravel TipsAdmin PostsConv PostsFollowed PostsChat RequestsBlog PostsPNR Posts

Disclaimer
Search
 
 
Mon Sep 22, 2014 23:46:24 ISTHomeTrainsΣChainsAtlasPNRForumGalleryNewsFAQTripsMembersLoginFeedback
No Recent News for this Train
Other Trains in the News **new
Latest...
..
Tue Aug 26, 2014 (08:50PM)
⇐ Return Journey: Train# 13133

13134/Varanasi - Sealdah (Upper India) Express

Time-Table HAS CHANGED.
Sep 03 (5:12PM)
Change Departure Station:
Change Arrival Station:
Post a Train Travel TipPost a Train Travel Tip **new
Post a Comment/Question/Picture/VideoPost a Comment/Question/Picture/Video
Pantry/Catering
✕ NO Pantry Car
✕ NO Catering
RSA - Rake Sharing
13119/13120 Sealdah - Old Delhi Express
Rake/Coach Composition
LOCO-SLR-GS-GS-S4-S3-S2-S1-B1-GS-GS-GS-GS-GS-GS-SLR
Loco
BWN WDM-3A
News    PNR    Forum    Time-Table    Availability    Fare Chart    Map    Arr/Dep History    Trips    Gallery    ΣChains    X/O    Timeline    
Travel Time: 9h 20m    34 halts    Distance: 301 km    Avg Speed: 32 km/hr
Type: Mail/Express
Zone: ER/Eastern
Departs @ 08:40 (Avg 1m late)
Platform# 4
 MT TFS
Varanasi Junction/BSB 
Arrives @ 18:00 (Avg 1h 46m late)
Platform# ???
 MT TFS
Punarakh/PHK 

34 halts. 72 intermediate Stations between Varanasi Junction and Punarakh

Show ALL intermediate Stations  Show Old Time-Table

#CodeStation NameX/OArrivesAvgDepartsAvgHaltPFDay#KmSpeedElevZoneAddress
1BSBVaranasi Junction (9)»  -08:40+1410.01882mNRVaranasi 221002, Uttar Pradesh
2MGSMughal Sarai Junction (8)X  09:35+009:50+115m--116.44283mECRMughalsarai 232101, Uttar Pradesh
3SLDSakaldiha (2)X  10:16+110:18+62m--134.68781mECRState Highway 69, Uttar Pradesh
4ZNAZamania (2)X  10:36+1210:38+162m--160.75177mECRGhazipur, Uttar Pradesh
5DLNDildarnagar Junction (2)  10:52 10:54+1510:57 10:59+235m--174.17972mECRDildarnagar, Uttar Pradesh
6BWHBhadaura (2)  11:10 11:05+2311:12 11:07+232m--182.06169mECRGhazipur, Uttar Pradesh
7GMRGahmar (2)  11:22 11:15+2611:24 11:17+292m--190.26268mECRDistt: Ghazipur, Uttar Pradesh
8CSAChausa (2)X  11:32 11:26+2611:34 11:28+262m--199.43068mECRState Highway 14, Bihar
9BXRBuxar (3)X  11:49 11:50+1311:53 11:52+144 2m11110.39867mECRBuxar, Bihar
10DUREDumraon (3)  12:02+2812:04+282m--1126.76570mECRDumraon, Bihar
11TWGTwining GanjX12:14 12:11+3312:16 12:13+332m--1134.37270mECRArrah Buxar Rd, Bihar
12RPRRaghunathpur (4)  12:18 12:20+3712:20 12:22+372m--1142.68869mECRRaghunathpur, Bihar
13BYNBanahi (2)X  12:28+3712:30+372m--1151.55167mECRBanahi, Bihar
14BEABihiya (3)X  12:37+3812:39+402m--1157.47767mECRBehea, Bihar
15KRSKarisath (2)X  12:48+4812:50+542m--1168.96065mECRKarisath, Bihar
16ARAAra Junction (3)  13:00+3413:05+335m--1178.87463mECRarrah( 06182-233411), Bihar
17KUAKulharia (2)  13:13+1:0213:14+1:071m--1188.74361mECRChandi Sahar Rd, Bihar
18KWRKoelwar (2)X  13:19-13:21-2m--1192.31865mECRNational Highway 30, Bihar
19VHCHChakki Block Cabin  13:29+1:0413:31+1:022m--1194.85463mECRNational Highway 30, Bihar
20BTABihta (2)X  13:38+1:0113:40+1:032m--1201.04262mECRDistt: Patna, Bihar
21SDESadisopur (2)  13:46-13:48-2m--1205.36164mECRSadisopur, Bihar
22NEONeora (2)XO  13:55+1:1113:57+1:152m--1212.3761mECRNational Highway 98, Bihar
23DNRDanapur (5)XO  14:50+2715:00+3210m--1218.45158mECRKhagaul, Bihar
24PWSPhulwari Sharif (3)X  15:04+4715:06+522m--1221.8958mECRPatna, Bihar
25PNBEPatna Junction (10)X  15:45+1915:55 16:05+2010 20m11227.82257mECRPatna 800001, Bihar
26RJPBRajendra Nagar Bihar (4)  16:02 16:12+2616:04 16:14+262m--1230.45155mECRPatna 800001, Bihar
27GZHGulzarbagh (3)X  16:09 16:19+3716:11 16:21+422m--1234.62055mECRPatna, Bihar
28PNCPatna Saheb (3)X  16:20 16:30+3516:22 16:32+362m--1237.73559mECRPatna 800008, Bihar
29FUTFatwa (6)  16:35 16:53+3716:37 16:55+512m--1249.92853mECRPatna, Bihar
30HDEHardas Bigha  16:42 17:00-16:44 17:02-2m--1252.27453mECRFatwah, Bihar
31KOOKhusropur (2)  16:49 17:07+1:0016:51 17:09+1:002m--1258.35052mECRPatna, Bihar
32KWOKarauta (2)X  17:16+5017:18+1:022m--1264.24552mECRKarauta, Bihar
33BKPBakhtiyarpur Junction (5)X  17:30+1:0317:32+1:202m--1273.29051mECRPatna, Bihar
34ATLAthmal Gola (2)  17:38+1:3217:40+1:322m--1282.26852mECRPatna, Bihar
35BARHBarh (3)  17:48+1:2617:50+1:352m--1291.36149mECRBarh, Bihar
36PHKPunarakh (2)•XO  18:00+1:4618:02+1:462m--1301.51051mECRPunarakh, Bihar
37MORMor (2)X  18:51+1:0618:53+1:092m--1309.73746mECRMor, Bihar
38MKAMokama Junction (4)  19:05+1:0419:10+1:025m--1317.06348mECRPatna, Bihar
39HTZHathidah Junction (2)X  19:18+1:0419:20+1:042m11325.44350mECRMusahari, Bihar
40BRYABarhiya (3)X  19:33+1:0619:35+1:062m--1334.87047mECRBarahiya, Bihar
41LKRLuckeesarai Junction (2)XO  19:48+1:0819:50+1:092m--1349.9152mECRLakhisarai, Bihar
42KIULKiul Junction (5)  20:45+2420:55+2310m51351.25953mECRDist. Lakhisarai, Bihar
43KJHKajra (2)  21:11+3521:13+372m--1366.94950mERLakhisarai District, Bihar
44AHAAbhaipur (3)  21:22+3821:24+382m--1374.25552mERAbhaipur, Bihar
45DRHDharhara (2)  21:35+4021:37+422m--1384.24755mERDharhara, Bihar
46DRTPDasharathpur (2)21:44+4221:46+422m--1389.72748mERDharhara, Bihar
47JMPJamalpur Junction (4)  22:00+3522:10+3610m--1396.14759mERJamalpur 06344-243101, Bihar
48RPURRatanpur (2)  22:18+4222:20+422m--1402.34246mERRatanpur Railway Station, Bihar
49BUPBariarpur (3)X  22:27+4222:29+422m--1407.25442mERMunger, Bihar
50SGGSultanGanj (3)  22:49+3822:51+392m--1425.14642mERSultanganj, Bihar
51AKNAkbarnagar (3)  23:04+3923:06+392m--1435.24539mERTilakpur, Bihar
52MPYMurarpur (2)  23:13-23:15-2m--1440.44238mERMau, Bihar
53NATNathnagar (2)  23:22+3623:24+362m--1445.41848mERBhagalpur, Bihar
54BGPBhagalpur Junction (6)X  23:40+2223:55+2515m21450.15649mERBhagalpur, Bihar
55SBOSabaur (3)X  00:03+3700:05+382m--2457.65042mERSabour, Bihar
56GGAGhoga (2)  00:20+4400:22+462m--2470.04942mERGhoga, Bihar
57EKCEkchari (1)X  00:29+4700:31+472m12475.82037mERNational Highway 80, Bihar
58CLGKahalgaon (2)  00:44+4200:46+432m12480.14444mERBhagalpur, Bihar
59BKSLBikram Shila (2)  01:01 00:57+4101:03 00:58+412 1m--2488.22358mERBikram Shila, Bihar
60SVRPShivanarayanpur (2)  01:12 01:07+3901:14 01:08+392 1m--2491.64447mERShivanarayanpur, Bihar
61PPTPirpainti (2)  01:25 01:20+4001:27 01:21+412 1m--2500.55653mERBhagalpur, Bihar
62MZCMirza Cheuki (3)  01:36 01:30+4301:38 01:32+422m32509.03538mERBihar, Bihar
63SBGSahibganj Junction (3)  02:03 01:58+3302:13 02:08+3810m12524.05038mERSahibganj, Jharkhand
64TLJTaljhari  02:44 02:42+4202:46 02:44+412m--2552.22538mERTaljhari, Jharkhand
65TPHTinpahar Junction (3)  03:03 03:07+3803:05 03:08+382 1m22561.83145mERBamangawan, Jharkhand
66BHWBarharwa Junction (3)  03:40+2003:45+215m22578.56536mERBarharwa, Jharkhand
67KLPKotalpukur (3)X  03:58+3104:00+312m12592.56540mERKotalpukur, Jharkhand
68PKRPakur (2)  04:11+2804:13+282m22604.54237mERDist:- Pakur, Jharkhand
69RJGRajgram (3)  04:28+3704:30+382m22615.15032mERDist - Birbhum, West Bengal
70BSBRBanshlai Bridge (2)  04:38+3504:40+352m--2621.84335mERDist - Birbhum, West Bengal
71MRRMurarai (3)  04:47+3404:49+342m22626.85736mERDist - Birbhum, West Bengal
72CTRChatra (3)X  04:57+3704:59+382m22634.44742mERDist - Birbhum, West Bengal
73NHTNalhati Junction (4)  05:10+3705:12+382m22643.02348mERDist - Birbhum, West Bengal
74RPHRampurhat (3)X  05:48+2506:03+2015m12657.16841mERDIST - Birbhum, West Bengal
75MLVMallarpur (3)  06:14+2406:16+252m--2669.54946mERDist - Birbhum, West Bengal
76SNTSainthia Junction (4)X  06:35+2206:37+232m42685.18058mERDist - Birbhum, West Bengal
77AMPAhmadpur Junction (3)  06:47+2806:49+272m22698.36546mERDist - Birbhum, West Bengal
78PNEPrantik (3)  07:03+1707:05+172m22713.63248mERDist - Birbhum, West Bengal
79BHPBolpur Shantiniketan (3)  07:13+2607:18+245m22717.87159mERDist - Birbhum, West Bengal
80GKHGuskara (2)X  07:34+2507:36+252m12736.73541mERDist - Bardhaman, West Bengal
81BWNBarddhaman Junction (8)XO  08:32+1108:56+724m--2769.67034mERDist - Barddhaman, West Bengal
82DAKEDakhineswar (2)  10:12-10:14-2m22858.22310mERDist - 24 paraganas ( North ), West Bengal
83BNXRBidhan Nagar Road (4)  10:38+310:40+32m42867.6138mERKolkata, West Bengal
84SDAHKolkata Sealdah (20)  10:55+10-92870.9-8mERPh : 033-23503535 (For North: APC Roy Road) Kolkata 700014, West Bengal
Scroll to Top
Scroll to Bottom